TimeEST,TemperatureF,Dew PointF,Humidity,Sea Level PressureIn,VisibilityMPH,Wind Direction,Wind SpeedMPH,Gust SpeedMPH,PrecipitationIn,Events,Conditions,WindDirDegrees,DateUTC
12:14 AM,33.8,30.2,87,29.72,10.0,South,6.9,-,N/A,,Clear,190,2011-11-12 05:14:00
12:55 AM,32.0,30.2,93,29.70,10.0,South,6.9,-,N/A,,Clear,190,2011-11-12 05:55:00
1:14 AM,32.0,30.2,93,29.70,10.0,South,6.9,-,N/A,,Clear,190,2011-11-12 06:14:00
1:35 AM,32.0,30.2,93,29.69,10.0,SSW,5.8,-,N/A,,Clear,200,2011-11-12 06:35:00
1:55 AM,33.8,30.2,87,29.69,10.0,SSW,3.5,-,N/A,,Clear,210,2011-11-12 06:55:00
2:15 AM,33.8,30.2,87,29.69,10.0,SSW,4.6,-,N/A,,Clear,210,2011-11-12 07:15:00
2:35 AM,32.0,30.2,93,29.69,10.0,South,5.8,-,N/A,,Clear,190,2011-11-12 07:35:00
2:55 AM,32.0,30.2,93,29.69,10.0,SW,4.6,-,N/A,,Clear,220,2011-11-12 07:55:00
3:14 AM,32.0,30.2,93,29.70,10.0,SSW,4.6,-,N/A,,Clear,200,2011-11-12 08:14:00
3:35 AM,32.0,30.2,93,29.69,10.0,South,4.6,-,N/A,,Clear,190,2011-11-12 08:35:00
3:55 AM,32.0,30.2,93,29.69,10.0,South,3.5,-,N/A,,Clear,180,2011-11-12 08:55:00
4:14 AM,32.0,30.2,93,29.69,10.0,SSE,3.5,-,N/A,,Clear,160,2011-11-12 09:14:00
5:14 AM,30.2,30.2,100,29.69,10.0,Calm,Calm,-,N/A,,Clear,0,2011-11-12 10:14:00
5:35 AM,30.2,30.2,100,29.69,10.0,Calm,Calm,-,N/A,,Clear,0,2011-11-12 10:35:00
5:55 AM,28.4,28.4,100,29.69,7.0,SSE,3.5,-,N/A,,Clear,160,2011-11-12 10:55:00
6:14 AM,28.4,28.4,100,29.70,7.0,Calm,Calm,-,N/A,,Clear,0,2011-11-12 11:14:00
6:35 AM,28.4,28.4,100,29.71,7.0,Calm,Calm,-,N/A,,Clear,0,2011-11-12 11:35:00
7:14 AM,28.4,28.4,100,29.71,7.0,SSE,3.5,-,N/A,,Clear,150,2011-11-12 12:14:00
7:35 AM,30.2,30.2,100,29.72,5.0,Calm,Calm,-,N/A,,Clear,0,2011-11-12 12:35:00
7:55 AM,28.4,28.4,100,29.72,4.0,Calm,Calm,-,N/A,,Clear,0,2011-11-12 12:55:00
8:14 AM,30.2,30.2,100,29.72,5.0,Calm,Calm,-,N/A,,Clear,0,2011-11-12 13:14:00
8:35 AM,32.0,32.0,100,29.72,5.0,Calm,Calm,-,N/A,,Clear,0,2011-11-12 13:35:00
8:54 AM,32.0,32.0,100,29.73,7.0,Calm,Calm,-,N/A,,Clear,0,2011-11-12 13:54:00
9:14 AM,33.8,33.8,100,29.74,7.0,Calm,Calm,-,N/A,,Clear,0,2011-11-12 14:14:00
9:35 AM,37.4,35.6,93,29.74,10.0,SSE,3.5,-,N/A,,Clear,160,2011-11-12 14:35:00
9:55 AM,41.0,37.4,87,29.74,10.0,ESE,4.6,-,N/A,,Clear,110,2011-11-12 14:55:00
10:14 AM,46.4,41.0,81,29.75,10.0,SW,12.7,20.7,N/A,,Clear,220,2011-11-12 15:14:00
10:35 AM,46.4,41.0,81,29.75,10.0,SW,10.4,-,N/A,,Clear,220,2011-11-12 15:35:00
10:54 AM,48.2,41.0,76,29.74,10.0,SW,12.7,17.3,N/A,,Clear,220,2011-11-12 15:54:00
11:15 AM,50.0,41.0,71,29.75,10.0,SSW,11.5,21.9,N/A,,Clear,210,2011-11-12 16:15:00
11:35 AM,50.0,41.0,71,29.75,10.0,SW,10.4,18.4,N/A,,Clear,220,2011-11-12 16:35:00
11:54 AM,50.0,41.0,71,29.75,10.0,SSW,13.8,20.7,N/A,,Clear,210,2011-11-12 16:54:00
12:15 PM,51.8,41.0,67,29.75,10.0,SSW,15.0,19.6,N/A,,Clear,210,2011-11-12 17:15:00
12:34 PM,51.8,41.0,67,29.74,10.0,SSW,13.8,21.9,N/A,,Clear,200,2011-11-12 17:34:00
12:55 PM,53.6,41.0,62,29.74,10.0,SW,11.5,20.7,N/A,,Clear,220,2011-11-12 17:55:00
1:15 PM,53.6,41.0,62,29.73,10.0,SW,9.2,18.4,N/A,,Clear,220,2011-11-12 18:15:00
1:34 PM,55.4,41.0,58,29.74,10.0,SW,13.8,21.9,N/A,,Clear,220,2011-11-12 18:34:00
2:15 PM,55.4,41.0,58,29.73,10.0,SW,11.5,18.4,N/A,,Clear,230,2011-11-12 19:15:00
2:34 PM,55.4,41.0,58,29.73,10.0,SSW,11.5,24.2,N/A,,Clear,210,2011-11-12 19:34:00
2:55 PM,55.4,41.0,58,29.73,10.0,SSW,16.1,24.2,N/A,,Clear,210,2011-11-12 19:55:00
3:15 PM,55.4,37.4,51,29.73,10.0,SW,16.1,27.6,N/A,,Clear,230,2011-11-12 20:15:00
3:34 PM,55.4,37.4,51,29.73,10.0,SSW,11.5,17.3,N/A,,Clear,210,2011-11-12 20:34:00
3:55 PM,55.4,39.2,54,29.74,10.0,South,9.2,-,N/A,,Clear,190,2011-11-12 20:55:00
4:15 PM,53.6,39.2,58,29.74,10.0,SSW,8.1,-,N/A,,Clear,200,2011-11-12 21:15:00
4:34 PM,53.6,39.2,58,29.74,10.0,SSW,13.8,19.6,N/A,,Clear,200,2011-11-12 21:34:00
4:55 PM,51.8,37.4,58,29.74,10.0,SSW,11.5,23.0,N/A,,Clear,210,2011-11-12 21:55:00
5:15 PM,51.8,37.4,58,29.73,10.0,SSW,6.9,-,N/A,,Clear,210,2011-11-12 22:15:00
5:34 PM,50.0,37.4,62,29.73,10.0,South,4.6,-,N/A,,Clear,180,2011-11-12 22:34:00
5:55 PM,46.4,37.4,71,29.72,10.0,SSE,4.6,-,N/A,,Clear,160,2011-11-12 22:55:00
6:15 PM,44.6,37.4,76,29.71,10.0,SSE,3.5,-,N/A,,Clear,160,2011-11-12 23:15:00
6:34 PM,42.8,35.6,76,29.71,10.0,Calm,Calm,-,N/A,,Clear,0,2011-11-12 23:34:00
6:55 PM,41.0,35.6,81,29.70,10.0,Calm,Calm,-,N/A,,Clear,0,2011-11-12 23:55:00
7:15 PM,41.0,37.4,87,29.69,10.0,Calm,Calm,-,N/A,,Clear,0,2011-11-13 00:15:00
7:34 PM,37.4,35.6,93,29.68,10.0,Calm,Calm,-,N/A,,Clear,0,2011-11-13 00:34:00
7:55 PM,37.4,35.6,93,29.67,10.0,Calm,Calm,-,N/A,,Clear,0,2011-11-13 00:55:00
8:35 PM,46.4,37.4,71,29.66,10.0,SSE,8.1,-,N/A,,Clear,160,2011-11-13 01:35:00
9:14 PM,46.4,37.4,71,29.66,10.0,South,4.6,-,N/A,,Clear,170,2011-11-13 02:14:00
9:35 PM,46.4,37.4,71,29.65,10.0,SSE,6.9,-,N/A,,Clear,160,2011-11-13 02:35:00
9:55 PM,46.4,35.6,66,29.65,10.0,SSE,8.1,-,N/A,,Clear,160,2011-11-13 02:55:00
10:15 PM,46.4,35.6,66,29.64,10.0,SSE,9.2,-,N/A,,Clear,160,2011-11-13 03:15:00
10:35 PM,48.2,35.6,62,29.64,10.0,South,9.2,17.3,N/A,,Clear,170,2011-11-13 03:35:00
10:55 PM,48.2,35.6,62,29.64,10.0,South,9.2,17.3,N/A,,Clear,180,2011-11-13 03:55:00
11:14 PM,48.2,35.6,62,29.63,10.0,South,11.5,18.4,N/A,,Clear,180,2011-11-13 04:14:00
11:35 PM,50.0,35.6,58,29.63,10.0,SSW,11.5,20.7,N/A,,Clear,200,2011-11-13 04:35:00
11:55 PM,50.0,35.6,58,29.62,10.0,South,11.5,18.4,N/A,,Clear,190,2011-11-13 04:55:00